#timestamp,LO_Frequency,Hit,StdDev 
1680044415.4,286047003.7,P
1680044435.3,286047001.9,P
1680044455.1,286047001.3,N
1680044475.8,286047002.0,N
1680044495.7,286047003.9,Y
1680044515.5,286047000.6,P
1680044535.4,286047000.0,N
1680044555.2,286046999.7,N
1680044575.0,286046998.8,N
1680044575.9,286046998.8,N
1680044595.8,286047000.4,N
1680044615.6,286047001.7,N
1680044635.5,286047000.3,N
1680044655.3,286047001.4,N
1680044675.1,286047002.1,N
1680044695.9,286047002.6,N
1680044715.7,286047000.2,N
1680044735.5,286047000.1,N
1680044755.4,286046998.5,N
1680044775.2,286047000.6,N
1680044795.1,286047000.9,N
1680044796.0,286047000.9,N
1680044815.8,286046998.2,N
1680044835.6,286046999.0,N
1680044855.5,286046997.6,N
1680044875.3,286046998.2,N
1680044895.1,286046998.2,N
1680044915.9,286046998.1,N
1680044935.7,286046998.2,N
1680044955.6,286046999.3,N
1680044975.4,286046998.6,N
1680044995.2,286046998.2,N
1680045015.1,286047000.8,N
1680045016.0,286047000.8,N
1680045035.8,286047001.2,N
1680045055.7,286047001.2,N
1680045075.5,286047001.1,N
1680045095.3,286047000.9,N
1680045115.2,286047002.3,N
1680045135.0,286046998.1,N
1680045135.9,286046998.1,N
1680045155.8,286046998.6,N
1680045175.6,286046999.0,N
1680045195.4,286047000.8,N
1680045215.3,286047000.8,N
1680045235.1,286046996.8,N
1680045255.8,286046997.3,N
1680045275.7,286046997.7,N
1680045295.5,286046996.5,N
1680045315.4,286046997.3,N
1680045335.2,286046999.1,N
1680045355.0,286046999.2,N
1680045355.9,286046999.2,N
1680045375.8,286046998.5,N
1680045395.6,286046996.6,N
1680045415.4,286046996.5,N
1680045435.3,286046997.0,N
1680045455.1,286046998.5,N
1680045475.9,286046998.3,N
1680045495.7,286046999.5,N
1680045515.5,286046997.9,N
1680045535.4,286046993.3,Y
1680045555.2,286046997.9,P
1680045575.1,286046995.6,P
1680045576.0,286046995.6,P
1680045595.8,286046993.4,Y
1680045615.6,286046994.9,P
1680045635.5,286046999.3,N
1680045655.3,286047000.7,N
1680045675.1,286047001.8,N
1680045695.9,286047003.9,N
1680045715.7,286047001.7,N
1680045735.6,286047001.4,N
1680045755.4,286047004.1,N
1680045775.2,286047004.1,N
1680045795.1,286047004.4,N
1680045796.0,286047004.4,N
1680045815.8,286047002.0,N
1680045835.6,286047003.2,N
1680045855.5,286047003.6,N
1680045875.3,286047004.7,N
1680045895.2,286047003.8,N
1680045915.9,286047003.7,N
1680045935.7,286047003.2,N
1680045955.6,286047003.0,N
1680045975.4,286047004.4,N
1680045995.2,286047003.4,N
1680046015.1,286047004.4,N
1680046016.0,286047004.4,N
1680046035.8,286047003.2,N
1680046055.7,286047003.4,N
1680046075.5,286047001.7,N
1680046095.3,286047000.0,N
1680046115.2,286047002.2,N
1680046135.0,286047002.0,N
1680046135.9,286047002.0,N
1680046155.7,286047004.4,N
1680046175.6,286047004.3,Y
1680046195.4,286046998.3,P
1680046215.3,286046997.4,N
1680046235.1,286046997.6,N
1680046236.0,286046997.6,N
1680046255.8,286047001.2,N
1680046275.7,286047000.3,N
1680046295.5,286047000.2,N
1680046315.3,286047001.0,N
1680046335.2,286047001.2,N
1680046355.0,286047000.6,N
1680046355.9,286047000.6,N
1680046375.8,286047000.2,N
1680046395.6,286047000.6,N
1680046415.4,286047000.8,N
1680046435.3,286047001.0,N
1680046455.1,286047002.2,N
1680046475.8,286046999.7,N
1680046495.7,286047001.8,N
1680046515.5,286047002.3,N
1680046535.4,286047001.4,N
1680046555.2,286047001.7,N
1680046575.0,286047002.6,N
1680046575.9,286047002.6,N
1680046595.8,286047000.8,N
1680046615.6,286047000.0,N
1680046635.4,286046998.4,N
1680046685.3,286046998.5,E
1680046695.2,286046999.9,N
1680046715.1,286047001.7,P
1680046716.0,286047001.7,N
1680046735.8,286047002.4,N
1680046755.7,286047001.5,N
1680046775.5,286047001.3,N
1680046795.3,286047001.7,N
1680046815.2,286047003.2,Y
1680046835.0,286047003.8,P
1680046835.9,286047003.8,P
1680046855.8,286047004.8,P
1680046875.6,286047005.8,Y
1680046895.4,286047000.9,P
1680046915.3,286046997.1,N
1680046935.1,286046999.4,N
1680046955.8,286046999.6,N
1680046975.7,286046997.8,N
1680046995.5,286046999.0,N
1680047015.4,286046998.3,N
1680047035.2,286046999.1,N
1680047055.0,286046997.2,N
1680047055.9,286046997.2,N
1680047075.8,286046998.9,N
1680047095.6,286046998.3,N
1680047115.4,286046998.9,N
1680047135.3,286047000.5,N
1680047155.1,286046998.2,N
1680047175.9,286046999.7,N
1680047195.7,286047001.0,N
1680047215.5,286047002.8,N
1680047235.4,286047001.2,N
1680047255.2,286047000.2,N
1680047275.0,286047002.2,N
1680047276.0,286047002.2,N
1680047295.8,286047002.1,N
1680047315.6,286047000.4,N
1680047335.5,286046999.9,N
1680047355.3,286047000.7,N
1680047375.1,286046998.9,N
1680047395.9,286046998.9,N
1680047415.7,286047000.6,N
1680047435.6,286046999.3,N
1680047455.4,286046999.2,N
1680047475.2,286047000.8,N
1680047495.1,286047000.4,N
1680047496.0,286047000.4,N
1680047515.8,286047000.1,N
1680047535.6,286046998.8,N
1680047555.5,286046998.4,N
1680047575.3,286046998.8,N
1680047595.2,286047001.0,N
1680047615.9,286047000.7,N
1680047635.7,286047002.3,N
1680047655.6,286047002.5,N
1680047675.4,286047002.8,N
1680047695.2,286047001.8,N
1680047715.1,286047002.1,N
1680047716.0,286047002.1,N
1680047735.8,286047002.7,N
1680047755.7,286046999.7,N
1680047775.5,286047002.3,N
1680047795.3,286047000.9,N
1680047815.2,286047002.8,N
1680047835.0,286047002.7,N
1680047835.9,286047002.7,N
1680047855.8,286047000.4,N
1680047875.6,286047001.8,N
1680047895.4,286047002.1,N
1680047915.3,286047002.7,N
1680047935.1,286047000.8,N
1680047955.9,286046998.9,N
1680047975.7,286046999.3,N
1680047995.5,286046998.3,N
